Dewpoint
71 72 76 76 75 75 75 74 74 74 74 75 75 74 75 75 75 75 75 75 74 74 74 74 74 75 74 75 74 74 74 74 74 74 74 75 76 76 75 75 76 72 75
70 72 76 76 76 75 75 74 75 75 75 75 75 75 75 75 75 75 75 75 75 74 74 74 74 74 75 75 74 74 75 74 74 73 74 74 75 75 76 75 74 74 75
69 71 72 76 76 75 74 74 75 75 75 75 75 75 75 75 75 75 75 74 74 73 73 73 72 72 73 73 74 74 74 74 74 74 75 72 71 74 74 75 75 75 75
69 69 70 76 76 75 75 75 75 75 75 75 75 75 75 74 74 74 73 73 73 72 71 70 70 69 69 70 70 71 72 72 72 74 72 71 70 73 73 73 74 75 75
70 69 70 76 75 75 75 75 75 75 74 74 74 73 73 72 72 71 71 71 71 70 70 70 70 71 72 72 71 70 70 70 70 71 72 73 71 72 73 74 74 75 75
70 69 74 75 74 74 75 74 74 74 74 74 73 72 72 71 71 72 71 71 71 71 72 72 73 73 73 73 73 73 72 72 71 69 70 71 71 72 74 74 74 73 75
70 69 72 76 75 74 74 74 74 74 73 73 73 72 72 72 72 71 72 73 73 74 74 74 74 74 74 74 74 74 74 73 69 70 69 69 70 71 74 75 75 75 75
69 68 70 75 75 75 74 74 74 74 73 73 73 73 73 73 73 73 74 74 74 74 75 75 75 75 75 75 75 75 75 75 70 70 70 70 73 72 72 74 76 75 75
68 69 70 71 74 74 74 74 73 73 73 73 73 73 74 74 74 74 75 75 75 75 75 76 76 76 75 75 76 76 76 76 72 71 70 70 73 74 75 75 75 75 75
68 68 71 72 70 71 69 74 73 73 73 73 73 74 74 74 74 75 76 76 76 76 76 77 77 77 77 76 76 76 75 75 72 72 72 70 74 74 74 75 76 75 75
68 69 71 70 72 73 72 72 74 74 74 74 74 74 74 71 72 72 73 75 75 76 76 77 77 77 76 76 76 76 75 72 71 70 71 75 74 73 73 75 77 76 75
67 68 69 70 70 71 70 72 73 73 72 73 73 75 73 73 74 73 75 76 76 77 77 77 77 77 76 72 73 74 72 72 71 70 70 74 74 73 72 74 75 76 75
66 68 70 70 72 70 70 71 70 71 71 72 75 75 73 73 73 73 73 74 76 75 73 72 73 72 72 74 73 74 73 73 70 70 71 73 72 73 74 74 75 75 75
66 67 68 70 72 71 70 70 70 70 70 70 71 73 73 71 72 73 73 75 76 74 73 74 74 74 74 74 74 74 73 73 71 71 72 74 75 75 75 75 75 75 74
67 67 69 71 72 72 73 71 72 70 69 70 72 72 72 72 72 73 74 75 76 75 74 74 73 73 73 73 74 74 73 72 71 71 72 74 75 75 75 75 75 72 72
67 68 68 70 72 73 73 73 72 70 70 70 69 70 72 72 72 73 73 74 73 73 72 70 72 74 73 73 69 71 72 71 71 71 71 72 73 73 74 75 74 74 72
67 68 67 69 70 73 73 72 71 70 67 70 70 72 73 73 74 75 73 73 73 73 71 72 75 75 72 70 71 71 71 72 71 72 72 72 72 76 77 76 74 73 73
66 68 68 66 68 71 71 71 70 70 70 71 71 72 73 74 75 75 73 73 74 73 72 72 73 71 71 71 72 72 72 73 72 72 72 71 72 71 74 75 74 73 71
67 68 68 69 68 70 71 70 71 72 72 71 72 73 75 74 74 75 73 75 76 73 73 73 73 73 72 72 70 71 72 72 71 69 72 73 74 73 72 74 74 72 71
67 68 69 69 70 71 70 72 70 70 70 71 71 72 74 75 75 75 74 75 75 73 73 75 75 75 73 73 70 70 72 72 72 72 72 71 73 73 73 74 73 71 71
65 68 69 69 72 70 69 68 69 68 69 69 70 72 75 73 74 76 73 74 72 74 75 75 73 73 70 74 71 70 71 72 71 72 73 72 73 73 74 74 72 71 69
61 66 68 70 71 71 69 69 69 69 69 69 69 72 74 74 74 74 75 72 74 73 76 73 71 67 71 73 72 69 66 66 69 72 73 72 72 73 72 74 73 73 71
59 63 67 70 71 72 72 70 71 71 71 69 69 70 72 73 74 74 75 73 75 75 71 71 70 73 69 72 75 70 66 63 66 69 71 71 73 72 72 73 72 73 72
57 60 66 69 71 71 73 71 73 68 67 64 67 71 71 73 74 74 75 75 76 74 74 72 70 70 72 69 72 73 74 71 65 62 69 71 72 72 73 72 71 72 72
57 58 62 68 70 71 72 73 70 71 66 67 69 73 75 74 73 74 75 76 76 74 75 74 74 72 71 70 71 72 74 72 73 68 64 65 68 70 70 71 71 71 71
57 58 61 67 71 72 71 72 73 72 70 68 70 69 70 72 73 75 74 76 75 75 76 75 75 74 74 74 73 73 75 71 71 70 68 69 67 69 70 70 71 71 71
Lifted_Index
-3 -3 -4 -4 -4 -3 -3 -3 -3 -3 -3 -3 -4 -4 -4 -5 -5 -4 -4 -4 -4 -4 -5 -5 -5 -5 -5 -5 -5 -5 -5 -5 -5 -5 -5 -6 -7 -7 -7 -7 -7 -7 -7
-3 -3 -3 -4 -4 -3 -3 -3 -3 -4 -4 -4 -4 -4 -4 -4 -4 -4 -4 -4 -4 -4 -5 -5 -5 -5 -5 -5 -5 -5 -5 -5 -5 -5 -5 -6 -6 -7 -7 -7 -7 -7 -7
-2 -2 -3 -3 -4 -3 -3 -3 -4 -4 -4 -4 -4 -4 -4 -4 -4 -4 -4 -4 -4 -4 -4 -4 -4 -4 -4 -4 -4 -5 -5 -5 -5 -5 -5 -5 -5 -6 -6 -6 -6 -6 -6
-1 -2 -2 -3 -3 -3 -3 -3 -4 -4 -4 -4 -4 -3 -3 -3 -3 -3 -3 -3 -3 -3 -3 -3 -3 -3 -3 -3 -3 -4 -4 -4 -4 -5 -5 -5 -5 -5 -5 -6 -6 -6 -6
-1 -1 -2 -3 -3 -3 -3 -3 -4 -4 -4 -4 -3 -3 -3 -3 -3 -2 -2 -2 -3 -3 -3 -3 -3 -3 -3 -3 -3 -3 -3 -3 -3 -4 -4 -4 -4 -4 -5 -5 -5 -6 -6
-1 -1 -2 -3 -3 -3 -3 -3 -3 -3 -3 -3 -3 -3 -2 -2 -2 -2 -2 -2 -3 -3 -3 -4 -4 -4 -4 -4 -4 -4 -4 -3 -3 -3 -3 -3 -4 -4 -5 -6 -5 -5 -5
-1 -1 -2 -3 -3 -3 -3 -3 -3 -3 -3 -3 -3 -3 -3 -2 -2 -2 -2 -3 -3 -4 -4 -4 -5 -5 -5 -5 -5 -4 -4 -4 -3 -3 -3 -3 -3 -3 -4 -5 -5 -5 -5
-1 -1 -2 -2 -2 -2 -2 -3 -3 -3 -3 -3 -3 -3 -3 -3 -3 -3 -3 -3 -4 -4 -4 -4 -5 -5 -5 -5 -5 -5 -5 -4 -4 -3 -3 -3 -3 -3 -4 -5 -5 -5 -5
-1 -1 -1 -2 -2 -2 -2 -2 -2 -2 -2 -2 -3 -3 -3 -3 -3 -3 -3 -4 -4 -4 -4 -5 -5 -5 -5 -5 -5 -5 -5 -5 -4 -4 -4 -3 -3 -3 -4 -5 -5 -5 -5
-1 -1 -1 -2 -1 -1 -1 -2 -2 -2 -2 -3 -3 -3 -3 -3 -3 -3 -3 -4 -4 -5 -5 -5 -5 -5 -5 -5 -5 -5 -5 -5 -4 -4 -4 -3 -3 -4 -4 -5 -5 -5 -4
-1 -1 -1 -2 -1 -1 -1 -2 -2 -2 -2 -3 -3 -3 -3 -3 -3 -3 -3 -3 -4 -4 -5 -5 -5 -5 -5 -4 -4 -5 -5 -5 -4 -4 -3 -3 -3 -3 -3 -4 -5 -4 -4
-1 -1 -1 -1 -1 -1 -1 -1 -2 -2 -2 -2 -3 -3 -3 -3 -3 -3 -3 -4 -4 -4 -5 -5 -5 -5 -5 -5 -5 -5 -5 -4 -4 -3 -3 -3 -3 -3 -3 -4 -4 -4 -3
-0 -1 -1 -1 -1 -1 -1 -1 -1 -2 -2 -2 -3 -3 -3 -3 -3 -3 -3 -4 -4 -4 -4 -4 -5 -5 -5 -5 -5 -5 -5 -4 -4 -3 -3 -3 -3 -3 -3 -4 -4 -4 -3
-0 -0 -1 -1 -1 -1 -1 -1 -1 -1 -1 -2 -2 -2 -3 -3 -3 -3 -4 -4 -5 -5 -4 -4 -4 -5 -5 -5 -5 -5 -5 -5 -4 -4 -4 -3 -4 -4 -4 -4 -4 -3 -3
-0 -0 -1 -1 -1 -1 -1 -1 -1 -1 -1 -1 -1 -2 -2 -2 -3 -3 -4 -5 -5 -5 -4 -4 -4 -5 -5 -5 -5 -5 -5 -5 -4 -4 -4 -4 -4 -4 -5 -5 -4 -3 -3
-0 -0 -1 -1 -1 -1 -1 -1 -1 -0 -0 -0 -1 -1 -2 -2 -3 -4 -4 -5 -5 -4 -4 -4 -4 -5 -5 -5 -5 -5 -5 -5 -5 -4 -4 -4 -4 -4 -5 -5 -4 -3 -3
-0 -0 -0 -0 -1 -1 -1 -1 -1 -0 -0 -0 -1 -1 -2 -2 -3 -4 -4 -5 -5 -4 -3 -4 -5 -5 -5 -5 -5 -5 -5 -5 -5 -5 -5 -5 -4 -5 -5 -4 -4 -3 -3
-0 -0 -0 -0 -0 -1 -1 -1 -1 -1 -1 -1 -1 -2 -3 -3 -3 -4 -4 -5 -5 -4 -4 -5 -5 -5 -5 -5 -5 -6 -6 -6 -6 -5 -5 -5 -5 -5 -5 -4 -4 -3 -3
-1 -1 -1 -0 -0 -0 -1 -1 -1 -1 -1 -1 -2 -2 -3 -4 -4 -4 -4 -5 -5 -5 -5 -5 -6 -6 -6 -6 -6 -6 -6 -6 -6 -6 -6 -6 -6 -5 -5 -4 -4 -3 -2
-0 -1 -1 -1 -1 -1 -1 -1 -1 -1 -1 -1 -2 -2 -3 -4 -4 -4 -4 -4 -5 -5 -5 -6 -6 -6 -6 -6 -6 -6 -6 -6 -6 -6 -6 -6 -6 -6 -5 -5 -4 -3 -2
0 -0 -1 -1 -1 -1 -1 -1 -1 -1 -1 -1 -2 -2 -3 -4 -4 -4 -4 -4 -4 -5 -6 -6 -5 -5 -6 -6 -7 -6 -6 -6 -7 -7 -7 -7 -6 -6 -6 -5 -4 -3 -2
1 1 -0 -1 -1 -1 -1 -2 -2 -2 -2 -2 -2 -3 -3 -4 -4 -4 -4 -4 -5 -5 -6 -5 -4 -4 -5 -6 -7 -6 -6 -6 -6 -7 -7 -7 -7 -7 -6 -5 -4 -3 -3
2 1 0 -0 -1 -2 -2 -2 -2 -2 -2 -2 -2 -3 -4 -4 -4 -4 -4 -4 -5 -6 -5 -4 -3 -4 -5 -6 -7 -7 -6 -5 -5 -6 -7 -7 -7 -7 -6 -5 -5 -4 -3
1 1 0 -1 -1 -2 -2 -2 -2 -2 -2 -1 -2 -3 -4 -4 -5 -5 -5 -5 -6 -6 -5 -4 -4 -4 -5 -6 -7 -7 -7 -6 -5 -5 -6 -6 -6 -6 -6 -5 -5 -4 -3
1 1 0 -1 -2 -2 -2 -2 -3 -2 -2 -2 -2 -4 -4 -5 -5 -5 -6 -6 -6 -6 -6 -5 -5 -4 -5 -6 -7 -8 -7 -7 -6 -6 -5 -5 -5 -6 -6 -5 -5 -4 -4
1 1 0 -1 -2 -2 -2 -2 -3 -2 -2 -2 -3 -4 -5 -5 -6 -6 -6 -6 -7 -7 -7 -6 -6 -5 -6 -6 -7 -7 -7 -7 -6 -6 -5 -5 -5 -5 -5 -5 -5 -4 -4